This is the latest recevied weather packets stored in our database for station/object N4HAC. If no packets are shown the sender has not sent any weather packets the latest 1 day(s).
| Time | Temp. | Humidity | Pressure | Rain* | Wind** | Luminosity | Snow |
|---|---|---|---|---|---|---|---|
| 1778044941 | 18.33° C | 60% | 1005.2 hPa | 0 mm | 1.34 m/s, 143° | 0 W/m² | - |
| 1778044638 | 18.33° C | 59% | 1005.1 hPa | 0 mm | 1.79 m/s, 127° | 0 W/m² | - |
| 1778044334 | 18.89° C | 59% | 1005 hPa | 0 mm | 0.45 m/s, 126° | 0 W/m² | - |
| 1778044033 | 18.89° C | 58% | 1005.1 hPa | 0 mm | 1.79 m/s, 112° | 0 W/m² | - |
| 1778043729 | 18.89° C | 58% | 1005 hPa | 0 mm | 1.79 m/s, 130° | 0 W/m² | - |
| 1778043426 | 18.89° C | 58% | 1004.9 hPa | 0 mm | 0.45 m/s, 155° | 0 W/m² | - |
| 1778043122 | 18.89° C | 56% | 1005 hPa | 0 mm | 3.58 m/s, 126° | 0 W/m² | - |
| 1778042821 | 18.89° C | 56% | 1005 hPa | 0 mm | 1.79 m/s, 123° | 0 W/m² | - |
| 1778042517 | 18.89° C | 56% | 1005 hPa | 0 mm | 0 m/s | 0 W/m² | - |
| 1778042214 | 18.89° C | 56% | 1005.1 hPa | 0 mm | 1.79 m/s, 117° | 0 W/m² | - |
| 1778041912 | 18.89° C | 56% | 1005 hPa | 0 mm | 0.89 m/s, 134° | 0 W/m² | - |
| 1778041611 | 19.44° C | 54% | 1005.2 hPa | 0 mm | 1.34 m/s, 137° | 0 W/m² | - |
| 1778041309 | 19.44° C | 54% | 1005.2 hPa | 0 mm | 1.79 m/s, 135° | 0 W/m² | - |
| 1778041007 | 19.44° C | 53% | 1005.3 hPa | 0 mm | 3.58 m/s, 142° | 0 W/m² | - |
| 1778040703 | 19.44° C | 52% | 1005 hPa | 0 mm | 2.24 m/s, 132° | 0 W/m² | - |
| 1778040401 | 20° C | 52% | 1005.1 hPa | 0 mm | 2.24 m/s, 121° | 0 W/m² | - |
| 1778040098 | 20° C | 51% | 1005.3 hPa | 0 mm | 1.79 m/s, 135° | 0 W/m² | - |
| 1778039795 | 20° C | 51% | 1005 hPa | 0 mm | 1.79 m/s, 119° | 0 W/m² | - |
| 1778039491 | 19.44° C | 51% | 1005 hPa | 0 mm | 1.34 m/s, 125° | 0 W/m² | - |
| 1778039189 | 20° C | 51% | 1004.8 hPa | 0 mm | 1.79 m/s, 148° | 0 W/m² | - |
| 1778038885 | 20° C | 50% | 1005 hPa | 0 mm | 3.58 m/s, 139° | 0 W/m² | - |
| 1778038583 | 20° C | 50% | 1005.1 hPa | 0 mm | 2.24 m/s, 110° | 0 W/m² | - |
| 1778038280 | 20° C | 50% | 1005.2 hPa | 0 mm | 2.24 m/s, 139° | 0 W/m² | - |
| 1778037977 | 20° C | 50% | 1005.1 hPa | 0 mm | 0.89 m/s, 234° | 0 W/m² | - |
| 1778037674 | 20.56° C | 49% | 1005 hPa | 0 mm | 1.79 m/s, 142° | 0 W/m² | - |
* Rain latest hour (hover to see other rain measurements)
** Current wind speed in m/s (hover to see current wind gust speed)